Location: Kuffner-Sternwarte
(48.2130°N, 16.2960°E)
Time: 16:45:19
(UTC+02:00)

COROT - Pass Details

Date: 14 May 2026
Orbit: 594 x 855 km, 90.1° (Epoch: 21 May)

Event Time Altitude Azimuth Distance (km) Brightness Sun altitude
Rises 00:53:49 0° 352° (N) 3,357 10.7 -23.2°
Reaches altitude 10° 00:56:35 10° 341° (NNW) 2,384 9.5 -23.2°
Maximum altitude 01:00:53 26° 287° (WNW) 1,497 7.6 -23.2°
Enters shadow 01:02:40 21° 255° (WSW) 1,654 7.5 -23.2°
